Content
SEND FEEDBACK

Daily
Averages
Monthly
Summary
Canada

LONDON, ONTARIO


Home > North America > Canada > Ontario
Elevation: 912 feet     Latitude: 43 02N     Longitude: 081 09W

WEATHER
 
SELECT A DAY
Number of Records: 195,646;   Date Range: 1/1/95 - 11/22/14
 
SHARE

PRINT THIS DATA

[ ← Previous Day ]
WEATHER ALMANAC - JANUARY 3, 2013
[ Next Day → ]
[ °C ]   °F
Weather ElementAverageHighLow
Temperature23 °F26.6 °F (9:22 pm)19 °F (1:00 am)
Dewpoint18.4 °F23 °F (9:00 pm)14 °F (11:00 am)
Humidity81.7 %93 % (9:00 pm)63 % (1:00 pm)
Barometer30.10 in30.19 in (1:00 am)30.01 in (1:52 pm)
Wind Speed11.1 mph16.1 mph (11:00 am)
Wind Gust21.9 mph (11:00 pm)
Weather ElementAverage
Visibility8.3 mi
Wind DirectionSW (221.5 °)

Weather ElementTotal
Precipitation---
Heating Degree Days42.2 (Base 65)
Averaged from 34 records on January 3, 2013
WEATHER CONDITIONS BREAKOUT
WIND DIRECTION BREAKOUT
WEATHER BY HOUR - JANUARY 3, 2013
[ °C ]   °F
Local TimeTemperatureDewpointHumidityBarometerVisibilityWind DirectionWind SpeedGust SpeedPrecipitationEventsConditions
1:00 AM19.0 °F16.0 °F82 %30.19 in15.0 miSSE (150°)4.6 mphOvercast
1:00 AM19.4 °F15.8 °F86 %30.19 in15.0 miSE (140°)4.6 mphSnowLight Snow
2:00 AM19.4 °F15.8 °F86 %30.19 in10.0 miSSE (160°)4.6 mphSnowLight Snow
3:00 AM19.4 °F15.8 °F86 %30.19 in10.0 miCalmSnowLight Snow
4:00 AM21.2 °F15.8 °F80 %30.16 in10.0 miSSW (200°)3.5 mphSnowLight Snow
5:00 AM21.2 °F17.6 °F86 %30.14 in12.0 miSSW (210°)5.8 mphSnowLight Snow
6:00 AM21.2 °F17.6 °F86 %30.13 in12.0 miSSW (200°)9.2 mphSnowLight Snow
7:00 AM21.2 °F17.6 °F86 %30.12 in12.0 miSSW (210°)12.7 mphSnowLight Snow
7:00 AM22.0 °F18.0 °F77 %30.12 in12.0 miSSW (210°)11.5 mphOvercast
8:00 AM21.2 °F17.6 °F86 %30.10 in12.0 miSSW (200°)10.4 mphSnowLight Snow
8:29 AM21.2 °F17.6 °F86 %30.10 in12.0 miSSW (210°)11.5 mphOvercast
9:00 AM23.0 °F15.8 °F74 %30.09 in12.0 miSW (220°)15.0 mph20.7 mphOvercast
10:00 AM23.0 °F15.8 °F74 %30.09 in15.0 miSW (220°)13.8 mphOvercast
11:00 AM23.0 °F14.0 °F68 %30.09 in15.0 miSW (230°)16.1 mphOvercast
12:00 PM23.0 °F15.8 °F74 %30.05 in15.0 miSW (230°)15.0 mphMostly Cloudy
1:00 PM24.0 °F17.0 °F63 %30.03 in10.0 miSW (230°)11.5 mphOvercast
1:00 PM23.0 °F15.8 °F74 %30.03 in10.0 miSW (230°)11.5 mphSnowLight Snow
1:52 PM23.0 °F17.6 °F80 %30.01 in6.0 miSW (230°)13.8 mphSnowLight Snow
2:00 PM23.0 °F17.6 °F80 %30.01 in6.0 miWSW (240°)13.8 mphSnowLight Snow Grains
3:00 PM23.0 °F17.6 °F80 %30.03 in7.0 miWSW (250°)15.0 mphOvercast
3:48 PM23.0 °F19.4 °F86 %30.04 in6.0 miWSW (240°)13.8 mph19.6 mphSnowLight Snow
4:00 PM23.0 °F19.4 °F86 %30.04 in5.0 miWSW (250°)12.7 mph18.4 mphSnowLight Snow
5:00 PM23.0 °F19.4 °F86 %30.06 in4.0 miWSW (240°)13.8 mphSnowLight Snow
5:37 PM23.0 °F19.4 °F86 %30.07 in2.0 miWSW (250°)11.5 mph19.6 mphSnowLight Snow
6:00 PM24.8 °F19.4 °F80 %30.08 in2.5 miWSW (250°)13.8 mphSnowLight Snow
7:00 PM24.8 °F21.2 °F86 %30.09 in2.5 miWest (260°)12.7 mphSnowLight Snow
7:00 PM25.0 °F21.0 °F78 %30.09 in2.0 miWSW (250°)13.8 mphOvercast
7:29 PM24.8 °F21.2 °F86 %30.10 in3.0 miWest (260°)12.7 mphSnowLight Snow
8:00 PM24.8 °F21.2 °F86 %30.10 in3.0 miWSW (250°)11.5 mph17.3 mphSnowLight Snow
9:00 PM24.8 °F23.0 °F93 %30.11 in3.0 miWSW (250°)12.7 mphSnowLight Snow
9:22 PM26.6 °F23.0 °F86 %30.10 in4.0 miWSW (250°)11.5 mphSnowLight Snow
10:00 PM26.6 °F23.0 °F86 %30.11 in6.0 miWest (260°)10.4 mphSnowLight Snow
10:37 PM26.6 °F21.2 °F80 %30.11 in6.0 miWest (270°)12.7 mphHaze
11:00 PM26.6 °F21.2 °F80 %30.11 in6.0 miWest (280°)11.5 mph21.9 mphHaze
Hourly data recorded from CYXU, located miles away from London, Ontario







STORIES FROM OUR PARTNERS